This is the latest recevied weather packets stored in our database for station/object KC1OEK-13. If no packets are shown the sender has not sent any weather packets the latest 10 day(s).
| Time | Temp. | Humidity | Pressure | Rain* | Wind** | Luminosity | Snow |
|---|---|---|---|---|---|---|---|
| 1788004833 | 13.89° C | 95% | 1025.4 hPa | 0 mm | - | 138 W/m² | - |
| 1788004532 | 13.89° C | 98% | 1025.4 hPa | 0 mm | - | 122 W/m² | - |
| 1788004227 | 13.33° C | 99% | 1025.4 hPa | 0 mm | - | 107 W/m² | - |
| 1788003926 | 12.78° C | 99% | 1025.5 hPa | 0 mm | - | 92 W/m² | - |
| 1788003621 | 12.22° C | 99% | 1025.5 hPa | 0 mm | - | 77 W/m² | - |
| 1788003320 | 12.22° C | 99% | 1025.5 hPa | 0 mm | - | 32 W/m² | - |
| 1788003015 | 12.22° C | 99% | 1025.4 hPa | 0 mm | - | 34 W/m² | - |
| 1788002709 | 12.22° C | 99% | 1025.4 hPa | 0 mm | - | 30 W/m² | - |
| 1788002406 | 12.22° C | 99% | 1025.5 hPa | 0 mm | - | 29 W/m² | - |
| 1788002100 | 11.67° C | 99% | 1025.3 hPa | 0 mm | - | 27 W/m² | - |
| 1788001795 | 11.67° C | 99% | 1025.4 hPa | 0 mm | - | 26 W/m² | - |
| 1788001490 | 11.67° C | 99% | 1025.4 hPa | 0 mm | - | 24 W/m² | - |
| 1788001189 | 11.67° C | 99% | 1025.2 hPa | 0 mm | - | 23 W/m² | - |
| 1788000885 | 11.67° C | 99% | 1025.2 hPa | 0 mm | - | 21 W/m² | - |
| 1788000580 | 11.67° C | 99% | 1025.1 hPa | 0 mm | - | 19 W/m² | - |
| 1788000280 | 11.11° C | 99% | 1024.9 hPa | 0 mm | - | 17 W/m² | - |
| 1787999975 | 11.67° C | 99% | 1025 hPa | 0 mm | - | 15 W/m² | - |
| 1787999672 | 11.11° C | 99% | 1025 hPa | 0 mm | - | 11 W/m² | - |
| 1787999369 | 11.11° C | 99% | 1025 hPa | 0 mm | - | 8 W/m² | - |
| 1787999068 | 11.11° C | 99% | 1025 hPa | 0 mm | - | 6 W/m² | - |
| 1787998763 | 11.67° C | 99% | 1024.8 hPa | 0 mm | - | 4 W/m² | - |
| 1787998461 | 11.67° C | 99% | 1024.8 hPa | 0 mm | - | 2 W/m² | - |
| 1787998156 | 11.67° C | 99% | 1024.8 hPa | 0 mm | - | 1 W/m² | - |
| 1787997856 | 11.67° C | 99% | 1024.6 hPa | 0 mm | - | 0 W/m² | - |
| 1787997554 | 11.67° C | 99% | 1024.6 hPa | 0 mm | - | 0 W/m² | - |
* Rain latest hour (hover to see other rain measurements)
** Current wind speed in m/s (hover to see current wind gust speed)